E1763 Weather Reports


time (UTC)temp
C
wind
direction
speed
KPH
gust
KPH
rain 1hr
cm
rain 24hr
cm
rain mn
cm
humidity
%
barometer
mb
20260502123049 10 41 0.0 0.0 0.00 0.03 0.03 96 1006.1
20260502121551 10 111 0.0 0.0 0.03 0.03 0.03 96 1006.1
20260502114553 10 337 0.0 0.0 0.03 0.03 0.03 96 1006.3
20260502113045 10 336 0.0 0.0 0.03 0.03 0.03 96 1006.2
20260502111547 10 37 0.0 0.0 0.00 0.00 0.00 96 1006.2
20260502110043 10 37 0.0 0.0 0.00 0.00 0.00 96 1006.4
20260502104548 10 203 0.0 0.0 0.00 0.00 0.00 96 1006.4
20260502103041 10 202 0.0 0.0 0.00 0.00 0.00 96 1006.5
20260502101540 10 217 0.0 0.0 0.00 0.00 0.00 96 1006.4
20260502091534 10 217 0.0 0.0 0.00 0.00 0.00 96 1006.8
20260502070022 10 217 0.0 0.0 0.00 0.00 0.00 95 1007.5
20260502064618 10 217 0.0 0.0 0.00 0.00 0.00 95 1007.5
20260502063018 10 355 0.0 0.0 0.00 0.00 0.00 94 1007.3
20260502061517 10 241 0.0 0.0 0.00 0.00 0.00 94 1007.6
20260502060016 10 241 0.0 0.0 0.00 0.00 0.00 94 1007.7
20260502054519 10 241 0.0 0.0 0.00 0.00 0.00 94 1007.8
20260502053016 10 241 0.0 0.0 0.00 0.00 0.00 94 1007.8
20260502051531 10 241 0.0 0.0 0.00 0.00 0.00 94 1007.9
20260502050015 10 241 0.0 0.0 0.00 0.00 0.00 93 1008.0
20260502044515 10 241 0.0 0.0 0.00 0.00 0.00 93 1007.9
20260502043014 10 241 0.0 0.0 0.00 0.00 0.00 92 1007.9
20260502041514 11 241 0.0 0.0 0.00 0.00 0.00 91 1007.8
20260502040014 11 241 0.0 0.0 0.00 0.00 0.00 90 1007.7
20260502034519 11 242 0.0 0.0 0.00 0.00 0.00 89 1007.5
20260502033016 12 205 0.0 0.0 0.00 0.00 0.00 88 1007.5
20260502031512 12 238 0.0 0.0 0.00 0.00 0.00 87 1007.4
20260502030011 13 238 0.0 0.0 0.00 0.00 0.00 85 1007.2
20260502024510 13 207 0.0 0.0 0.00 0.00 0.00 83 1007.2
20260502023010 15 232 0.0 0.0 0.00 0.00 0.00 81 1007.2
20260502021509 15 236 0.0 0.0 0.00 0.00 0.00 79 1007.2
20260502020008 16 263 0.0 0.0 0.00 0.00 0.00 77 1007.3
20260502014510 17 226 0.0 0.0 0.00 0.00 0.00 74 1007.4
20260502013007 17 246 0.0 0.0 0.00 0.00 0.00 74 1007.5
20260502011507 18 343 0.0 0.0 0.00 0.00 0.00 73 1007.5
20260502010005 18 188 0.0 9.7 0.00 0.00 0.00 73 1007.3
20260502004506 19 214 0.0 3.2 0.00 0.00 0.00 68 1007.6
20260502003015 21 200 0.0 0.0 0.00 0.00 0.00 66 1007.5
20260502001504 21 188 0.0 0.0 0.00 0.00 0.00 65 1007.4
20260501234502 20 175 0.0 0.0 0.00 0.00 0.00 70 1007.5
20260501233002 20 246 0.0 0.0 0.00 0.00 0.00 70 1007.7
20260501231608 20 300 0.0 0.0 0.00 0.00 0.00 67 1007.7
20260501230107 20 164 0.0 0.0 0.00 0.00 0.00 69 1007.7
20260501224557 21 323 0.0 1.6 0.00 0.00 0.00 67 1007.9
20260501223056 21 221 0.0 0.0 0.00 0.00 0.00 69 1008.0
20260501221554 21 267 0.0 0.0 0.00 0.00 0.00 66 1008.4
20260501220051 21 343 0.0 0.0 0.00 0.00 0.00 71 1008.4
20260501214559 20 283 0.0 0.0 0.00 0.00 0.00 69 1008.5
20260501213054 21 245 0.0 0.0 0.00 0.00 0.00 69 1008.6
20260501211547 21 192 0.0 0.0 0.00 0.00 0.00 71 1008.7
20260501210045 21 271 0.0 0.0 0.00 0.00 0.00 69 1008.7
20260501204544 21 221 0.0 0.0 0.00 0.00 0.00 67 1008.7
20260501203043 22 257 0.0 0.0 0.00 0.00 0.00 69 1008.8
20260501201545 21 163 0.0 0.0 0.00 0.00 0.00 69 1008.9
20260501200038 21 205 0.0 0.0 0.00 0.00 0.00 72 1008.9
20260501194537 20 219 0.0 0.0 0.00 0.00 0.00 75 1009.1
20260501193034 20 157 0.0 0.0 0.00 0.00 0.00 75 1009.3
20260501191530 19 290 0.0 0.0 0.00 0.00 0.00 77 1009.4
20260501190026 17 107 0.0 0.0 0.00 0.00 0.00 83 1009.6
20260501184522 17 10 0.0 0.0 0.00 0.00 0.00 88 1009.8
20260501183020 15 35 0.0 0.0 0.00 0.00 0.00 93 1009.9
20260501181515 14 351 0.0 3.2 0.00 0.00 0.00 96 1010.0
20260501180019 13 325 0.0 1.6 0.00 0.00 0.00 97 1010.1
20260501174512 12 284 0.0 0.0 0.00 0.00 0.00 97 1010.1
20260501173006 11 181 0.0 0.0 0.00 0.00 0.00 97 1010.0
20260501171506 11 189 0.0 0.0 0.00 0.00 0.00 97 1010.0
20260501170002 11 269 0.0 0.0 0.00 0.00 0.00 97 1010.0
20260501164600 11 250 0.0 0.0 0.00 0.00 0.00 97 1009.8
20260501163059 11 236 0.0 0.0 0.00 0.00 0.00 96 1009.9
20260501161557 10 177 0.0 0.0 0.00 0.00 0.00 96 1010.0
20260501160058 10 197 0.0 1.6 0.00 0.00 0.00 97 1009.9
20260501154607 10 225 0.0 1.6 0.00 0.00 0.00 97 1009.9
20260501153052 10 227 0.0 0.0 0.00 0.00 0.00 97 1009.8
20260501151550 10 227 0.0 1.6 0.00 0.00 0.00 97 1009.7
20260501150045 10 182 0.0 0.0 0.00 0.00 0.00 96 1009.4
20260501144545 9 233 0.0 0.0 0.00 0.00 0.00 96 1009.4
20260501143044 9 20 0.0 0.0 0.00 0.00 0.00 96 1009.2
20260501141548 9 159 0.0 0.0 0.00 0.00 0.00 96 1009.0
20260501140041 9 272 0.0 0.0 0.00 0.00 0.00 96 1008.9
20260501134541 9 65 0.0 0.0 0.00 0.00 0.00 96 1008.8